Regional Weather Roundup
Issued by NWS

Home | Current Version | Previous Version | Text Only | Print | Product List | Glossary On
Versions: 1 2 3 4 5 6 7 8 9 10 11 12 13 14 15 16 17 18 19 20 21 22 23 24 25 26 27 28 29 30 31 32 33 34 35 36 37 38 39 40 41 42 43 44 45 46 47 48 49 50
222
ASUS45 KBOU 251407
RWRCO

WEATHER ROUNDUP FOR COLORADO
NATIONAL WEATHER SERVICE DENVER/BOULDER CO
800 AM MDT MON SEP 25 2017

NOTE: "FAIR" INDICATES FEW OR NO CLOUDS BELOW 12000 FEET WITH NO
SIGNIFICANT WEATHER AND/OR OBSTRUCTIONS TO VISIBILITY.

COZ001>005-013-030-031-251500-
...NORTHWEST COLORADO...

CITY           SKY/WX    TMP DP  RH WIND       PRES   REMARKS
CRAIG          CLOUDY    32  29  88 CALM      30.15R
HAYDEN         NOT AVBL
MEEKER         FAIR      29  26  89 E3        30.14R
RABBIT EARS PA FAIR      28  21  74 SW3       30.16S
STEAMBOAT SPGS CLOUDY    28  28  96 CALM      30.14R
WALDEN         FAIR      27  25  93 CALM      30.14S
$$

COZ006>008-011-251500-
...WEST CENTRAL VALLEYS...

CITY           SKY/WX    TMP DP  RH WIND       PRES   REMARKS
GRAND JUNCTION FAIR      38  32  79 CALM      30.09R
MONTROSE       FAIR      35  28  75 SE6       30.13R WCI  30
EAGLE          FAIR      28  24  85 E3        30.17R
RIFLE          FAIR      35  31  85 CALM      30.12R
DELTA          NOT AVBL
NUCLA          NOT AVBL
$$

COZ017>023-064>068-251500-
...SOUTHWEST COLORADO...

CITY           SKY/WX    TMP DP  RH WIND       PRES   REMARKS
DURANGO        FAIR      29  20  69 CALM      30.07R
CORTEZ         FAIR      31  24  75 E6        30.09R WCI  25
PAGOSA SPRINGS FAIR      33  25  72 CALM      30.10R
TELLURIDE      FAIR      29  14  53 CALM      30.15R
WOLF CREEK PAS FAIR      28  10  47 S10       30.24S WCI  19
$$

COZ009-010-012-014-032>034-037-058>063-251500-
...CENTRAL COLORADO...

CITY           SKY/WX    TMP DP  RH WIND       PRES   REMARKS
ASPEN          FAIR      24  19  81 S5        30.12R WCI  18
BUENA VISTA    CLOUDY    38  24  57 NW9       30.11S
COPPER MTN     FAIR      34   9  35 E3        30.19S
BERTHOUD PASS  FAIR      21  12  68 S12G21    30.20S WCI   9
COTTONWOOD PAS FAIR      37  28  70 CALM      30.15S
GUNNISON       FAIR      22  16  78 CALM      30.15S
KREMMLING      FOG       32  28  86 CALM      30.16S VSB 1/2
LEADVILLE      FAIR      25  17  72 CALM      30.14R
MONARCH PASS   FAIR      27  18  69 CALM      30.30R
SALIDA         PTSUNNY   43  35  73 N3        30.17S
SUNLIGHT       FAIR      27  12  54 CALM      30.21R
WILKERSON PASS FAIR      30  28  93 S6        30.21S WCI  24
$$

COZ069>075-251500-
...SAN LUIS VALLEY/SANGRE DE CRISTO MOUNTAINS...

CITY           SKY/WX    TMP DP  RH WIND       PRES   REMARKS
ALAMOSA        FAIR      34  27  75 CALM      30.07S
DEL NORTE      FAIR      36  23  59 W14       30.09S
LA VETA PASS   FOG       36  34  93 NE8       30.28S VSB<1/4
SAGUACHE       FAIR      37  21  52 NW13      30.09R
$$

COZ035-036-038>040-251500-
...NORTHERN COLORADO FRONT RANGE...

CITY           SKY/WX    TMP DP  RH WIND       PRES   REMARKS
DENVER INTL AP CLOUDY    45  42  89 N6        30.10S
DMNS CITY PARK   N/A     43  42  93 N3G15     30.11R
AURORA         CLOUDY    42  42 100 NW7       30.11R
FRONT RANGE AP FOG       46  45  93 N6        30.11R VSB 1
ERIE MUNI ARPT CLOUDY    43  41  93 NE5       30.16S
BOULDER MUN AP CLOUDY    43  41  93 NE6       30.10R
CENTENNIAL     CLOUDY    43  42  97 N9        30.10S
BROOMFIELD     PTSUNNY   43  41  93 N7        30.11R
FORT COLLINS   CLOUDY    44  41  89 NE8       30.11S
LONGMONT       PTSUNNY   45  41  88 E3        30.13R FOG
$$

COZ041-046-047-076>085-087-088-251500-
...PIKES PEAK/PALMER DIVIDE AND SOUTHERN FOOTHILLS...

CITY           SKY/WX    TMP DP  RH WIND       PRES   REMARKS
COLO. SPRINGS  PTSUNNY   47  40  76 N12       30.10R
A. F. ACADEMY  CLOUDY    44  42  93 N13       30.08S
SCHRIEVER AFB  PTSUNNY   45  40  83 MISG      30.07S
CHEYENNE MTN   PTSUNNY   44  39  83 N9        30.04R
ELLICOTT       PTSUNNY  N/A N/A N/A N9        30.06R
FALCON         CLOUDY    42  40  92 N9G16     30.10S
FORT CARSON    FAIR      48  42  81 N13       30.06S
LIMON            N/A    N/A N/A N/A MISG      30.07S
MONUMENT HILL  CLOUDY    39  39 100 N9        30.12S FOG
CANON CITY     NOT AVBL
WALSENBURG     NOT AVBL
TRINIDAD       CLOUDY    49  49 100 N7        30.07R
$$

COZ042>045-048>051-090-091-251500-
...NORTHEAST COLORADO...

CITY           SKY/WX    TMP DP  RH WIND       PRES   REMARKS
GREELEY ARPT   CLOUDY    45  43  93 NE9       30.12R
AKRON          CLOUDY    44  42  93 NE13      30.09F FOG
BURLINGTON     CLOUDY    47  47 100 N17G24    30.04F FOG
WRAY           LGT RAIN  46  46 100 N8        30.08F
YUMA           CLOUDY    43  43 100 N12       30.09F
STERLING       CLOUDY    45  43  93 NE6       30.11S
HOLYOKE        CLOUDY    46  45  93 N9        30.10F
FORT MORGAN    CLOUDY    43  41  94 N12       30.11F
$$

COZ086-089-092>099-251500-
...SOUTHEAST COLORADO...

CITY           SKY/WX    TMP DP  RH WIND       PRES   REMARKS
PUEBLO         FAIR      52  44  74 CALM      30.04R
LA JUNTA       LGT RAIN  52  50  93 NE12      30.04R FOG
LAMAR          LGT RAIN  52  49  89 NE9       30.01R FOG
SPRINGFIELD      N/A     52  32  46 N9        30.01R
$$




USA.gov is the U.S. government's official web portal to all federal, state and local government web resources and services.